Regional Weather Roundup
Issued by NWS

Home | Current Version | Previous Version | Graphics & Text | Print | Product List | Glossary On
Versions: 1 2 3 4 5 6 7 8 9 10 11 12 13 14 15 16 17 18 19 20 21 22 23 24 25 26 27 28 29 30 31 32 33 34 35 36 37 38 39 40 41 42 43 44 45 46 47 48 49 50
884
ASUS44 KJAN 251810
RWRMS

MISSISSIPPI HOURLY WEATHER ROUNDUP
NATIONAL WEATHER SERVICE JACKSON MS
1200 PM CST TUE NOV 25 2014

NOTE: "FAIR: INDICATES FEW OR NO CLOUDS BELOW 12,000 FEET WITH NO
SIGNIFICANT WEATHER AND/OR OBSTRUCTIONS TO VISIBILITY.

MSZ001>002-007>008-010>013-018>021-025>028-034>036-251900-
NORTHWEST MISSISSIPPI

CITY           SKY/WX    TMP DP  RH WIND       PRES   REMARKS
CLARKSDALE     FAIR      46  25  42 NW13      30.24F
CLEVELAND      FAIR      48  30  50 N10       30.24F
GREENWOOD      CLOUDY    50  21  32 N8        30.23F
6HR MIN TEMP:  29; 6HR MAX TEMP:  51;

GREENVILLE     PTSUNNY   50  21  32 N12       30.24F
6HR MIN TEMP:  37; 6HR MAX TEMP:  50;

GRENADA        FAIR      50  21  32 CALM      30.22F
OLIVE BRANCH   PTSUNNY   46  23  39 NW8       30.21F
OXFORD         FAIR      46  19  34 NW9       30.22F
TUNICA         PTCLDY    46  27  46 W8        30.25F
$$

MSZ003>006-009-014>017-022>024-029>033-037>039-251900-
NORTHEAST MISSISSIPPI

CITY           SKY/WX    TMP DP  RH WIND       PRES   REMARKS
COLUMBUS AFB   CLOUDY    51  28  41 N6        30.17F
6HR MIN TEMP:  29; 6HR MAX TEMP:  51;

CORINTH        FAIR      48  27  43 NW8       30.17F
GOLDN TRIANGLE SUNNY     52  30  43 NW7       30.17F
STARKVILLE     FAIR      50  28  43 NW6       30.19F
TUPELO         PTSUNNY   49  28  44 N7        30.19F
6HR MIN TEMP:  34; 6HR MAX TEMP:  49;

$$

MSZ040-058-251900-
CENTRAL MISSISSIPPI

CITY           SKY/WX    TMP DP  RH WIND       PRES   REMARKS
JACKSON INTL   CLOUDY    52  26  36 N10       30.21F
6HR MIN TEMP:  33; 6HR MAX TEMP:  53;

JACKSON HAWKNS CLOUDY    51  26  37 VRB7      30.22F
6HR MIN TEMP:  38; 6HR MAX TEMP:  52;

MERIDIAN KEY   PTSUNNY   57  28  33 N10       30.15F
6HR MIN TEMP:  40; 6HR MAX TEMP:  58; 6HR PCP: TRACE;

MERIDIAN NAS   PTSUNNY   57  29  34 N12       30.15F
6HR MIN TEMP:  39; 6HR MAX TEMP:  57;

RAYMOND        FAIR      50  46  87 NW8       30.23S
VICKSBURG      CLOUDY    52  27  38 N12       30.25F
6HR MIN TEMP:  29; 6HR MAX TEMP:  52;

$$

MSZ059>079-251900-
SOUTH MISSISSIPPI

CITY           SKY/WX    TMP DP  RH WIND       PRES   REMARKS
BROOKHAVEN     FAIR      54  32  43 NW7       30.22S
COLUMBIA       FAIR      54  30  40 MISG        N/A
HATTIESBURG      N/A    N/A N/A N/A MISG      30.17F
MCCOMB         CLOUDY    54  23  30 N12       30.19F
6HR MIN TEMP:  40; 6HR MAX TEMP:  55;

NATCHEZ        CLOUDY    52  28  40 N9        30.24F
6HR MIN TEMP:  36; 6HR MAX TEMP:  52;

PINE BELT      CLOUDY    55  32  41 NW8       30.17F
6HR MIN TEMP:  43; 6HR MAX TEMP:  55;

$$

MSZ080>082-251900-
COASTAL MISSISSIPPI

CITY           SKY/WX    TMP DP  RH WIND       PRES   REMARKS
BAY ST LOUIS   PTSUNNY   57  27  30 N12G17    30.13F
BILOXI         PTSUNNY   62  29  29 N20G26    30.10F
6HR MIN TEMP:  52; 6HR MAX TEMP:  62;

PASCAGOULA     PTSUNNY   62  31  31 N16G22    30.09F
6HR MIN TEMP:  50; 6HR MAX TEMP:  62;

GULFPORT       PTSUNNY   59  30  33 N15       30.11F
6HR MIN TEMP:  52; 6HR MAX TEMP:  60;

$$



USA.gov is the U.S. government's official web portal to all federal, state and local government web resources and services.